Grissom Arb, IN

3:18 AM EDT on September 26, 2016 (GMT -0400)
Grissom Air Reserve Base

Weather History for KGUS - February, 2013

Change the Weather History Date:

Tuesday, February 19, 2013

  Actual Average Record
Temperature  
Mean Temperature 30 °F -  
Max Temperature 44 °F 37 °F 60 °F (2016)
Min Temperature 17 °F 24 °F -3 °F (2015)
Degree Days  
Heating Degree Days 34    
Moisture  
Dew Point 22 °F    
Average Humidity 86    
Maximum Humidity 100    
Minimum Humidity 74    
Precipitation  
Precipitation 0.13 in - - ()
Sea Level Pressure  
Sea Level Pressure 29.84 in    
Wind  
Wind Speed 26 mph (West)    
Max Wind Speed 37 mph    
Max Gust Speed 47 mph    
Visibility 7 miles    
Events Rain , Snow    
Averages and records for this station are not official NWS values.
T = Trace of Precipitation, MM = Missing Value Source: NWS Daily Summary

Daily Weather History Graph

Daily Weather History Graph

Search for Another Location

Airport or City:

Trip Planner

Search our weather history database for the weather conditions in past years. The results will help you decide how hot, cold, wet, or windy it might be!

Date:

Astronomy

Feb. 19, 2013 Rise Set
Actual Time 7:32 AM EST 6:24 PM EST
Civil Twilight 7:04 AM EST 6:52 PM EST
Nautical Twilight 6:33 AM EST 7:24 PM EST
Astronomical Twilight 6:01 AM EST 7:56 PM EST
Moon 12:54 PM EST (2/19) 3:04 AM EST (2/19)
Length of Visible Light 11h 47m
Length of Day
10h 51m
Waxing Gibbous, 67% of the Moon is Illuminated
Feb 19
Waxing Gibbous
Feb 25
Full
Mar 4
Last Quarter
Mar 11
New
Mar 19
First Quarter

Hourly Weather History & Observations

Time (EST) Temp. Windchill Dew Point Humidity Pressure Visibility Wind Dir Wind Speed Gust Speed Precip Events Conditions
12:05 AM 44.6 °F 35.1 °F 42.8 °F 93% 29.52 in 10.0 mi South 27.6 mph 39.1 mph N/A Rain Light Rain
12:17 AM 44.6 °F 35.3 °F 42.8 °F 93% 29.52 in 10.0 mi South 26.5 mph 36.8 mph N/A Rain Light Rain
12:28 AM 44.6 °F 35.9 °F 42.8 °F 93% 29.51 in 10.0 mi South 23.0 mph 40.3 mph N/A   Overcast
12:30 AM 44.6 °F 35.7 °F 42.8 °F 93% 29.51 in 10.0 mi South 24.2 mph 38.0 mph N/A   Overcast
12:32 AM 44.6 °F 35.3 °F 42.8 °F 93% 29.51 in 10.0 mi South 26.5 mph 38.0 mph N/A   Overcast
12:34 AM 44.6 °F 35.5 °F 42.8 °F 93% 29.51 in 10.0 mi South 25.3 mph 38.0 mph N/A   Overcast
12:36 AM 44.6 °F 35.1 °F 42.8 °F 93% 29.51 in 10.0 mi South 27.6 mph 34.5 mph N/A   Overcast
12:40 AM 44.6 °F 35.7 °F 42.8 °F 93% 29.51 in 10.0 mi South 24.2 mph 33.4 mph N/A Rain Light Rain
12:48 AM 44.6 °F 34.7 °F 42.8 °F 93% 29.51 in 10.0 mi South 29.9 mph 33.4 mph N/A Rain Light Rain
12:55 AM 44.8 °F 35.7 °F 43.5 °F 95% 29.51 in 10.0 mi South 25.3 mph 35.7 mph 0.01 in Rain Light Rain
1:04 AM 44.6 °F 33.8 °F 42.8 °F 93% 29.52 in 6.0 mi SW 36.8 mph 47.2 mph N/A Rain Light Rain
1:06 AM 44.6 °F 33.9 °F 42.8 °F 93% 29.53 in 5.0 mi West 35.7 mph 47.2 mph N/A Rain Light Rain
1:09 AM 42.8 °F 32.1 °F 41.0 °F 93% 29.55 in 5.0 mi West 31.1 mph 47.2 mph N/A Rain Light Rain
1:12 AM 41.0 °F 30.2 °F 39.2 °F 93% 29.56 in 5.0 mi West 27.6 mph 47.2 mph N/A Rain Light Rain
1:17 AM 37.4 °F 25.2 °F 37.4 °F 100% 29.56 in 10.0 mi West 28.8 mph 36.8 mph N/A Rain Light Rain
1:32 AM 33.8 °F 20.8 °F 33.8 °F 100% 29.58 in 7.0 mi West 26.5 mph 36.8 mph N/A Snow Light Snow
1:34 AM 33.8 °F 20.5 °F 33.8 °F 100% 29.59 in 5.0 mi West 27.6 mph 35.7 mph N/A Snow Light Snow
1:40 AM 33.8 °F 21.3 °F 32.0 °F 93% 29.60 in 5.0 mi West 24.2 mph 35.7 mph N/A Snow Light Snow
1:48 AM 33.8 °F 20.3 °F 32.0 °F 93% 29.60 in 10.0 mi West 28.8 mph 40.3 mph N/A Rain Light Freezing Rain
1:55 AM 32.9 °F 18.6 °F 32.0 °F 96% 29.61 in 10.0 mi West 31.1 mph 40.3 mph 0.06 in Rain Light Freezing Rain
1:56 AM 32.0 °F 17.0 °F 32.0 °F 100% 29.61 in 10.0 mi West 33.4 mph 40.3 mph N/A Rain Light Freezing Rain
2:03 AM 32.0 °F 19.2 °F 32.0 °F 100% 29.61 in 10.0 mi West 23.0 mph 41.4 mph N/A Rain Light Freezing Rain
2:22 AM 32.0 °F 19.2 °F 32.0 °F 100% 29.62 in 10.0 mi West 23.0 mph 29.9 mph N/A   Overcast
2:28 AM 32.0 °F 17.9 °F 32.0 °F 100% 29.63 in 10.0 mi West 28.8 mph 35.7 mph N/A   Overcast
2:35 AM 32.0 °F 17.9 °F 30.2 °F 93% 29.64 in 10.0 mi West 28.8 mph 39.1 mph N/A   Overcast
2:55 AM 31.1 °F 17.2 °F 29.5 °F 94% 29.65 in 10.0 mi West 26.5 mph 36.8 mph 0.00 in   Overcast
3:09 AM 30.2 °F 15.2 °F 30.2 °F 100% 29.65 in 10.0 mi West 29.9 mph 36.8 mph N/A   Overcast
3:35 AM 28.4 °F 14.1 °F 28.4 °F 100% 29.67 in 10.0 mi West 24.2 mph 36.8 mph N/A   Overcast
3:45 AM 28.4 °F 11.4 °F 26.6 °F 93% 29.67 in 10.0 mi West 36.8 mph 42.6 mph N/A   Overcast
3:55 AM 27.9 °F 13.4 °F 25.7 °F 92% 29.68 in 10.0 mi West 24.2 mph 40.3 mph N/A   Overcast
4:07 AM 28.4 °F 12.7 °F 26.6 °F 93% 29.68 in 10.0 mi West 29.9 mph 38.0 mph N/A   Overcast
4:55 AM 25.2 °F 8.1 °F 21.4 °F 86% 29.71 in 10.0 mi West 31.1 mph 41.4 mph 0.03 in   Overcast
5:04 AM 24.8 °F 7.3 °F 21.2 °F 86% 29.71 in 10.0 mi West 32.2 mph 42.6 mph N/A   Overcast
5:55 AM 24.8 °F 10.0 °F 20.7 °F 84% 29.74 in 10.0 mi West 21.9 mph 32.2 mph 0.01 in   Overcast
6:03 AM 24.8 °F 10.0 °F 21.2 °F 86% 29.74 in 10.0 mi West 21.9 mph 32.2 mph N/A   Overcast
6:55 AM 23.7 °F 8.9 °F 19.8 °F 85% 29.77 in 7.0 mi West 20.7 mph - 0.00 in Snow Light Snow
7:36 AM 23.0 °F 6.3 °F 17.6 °F 80% 29.78 in 10.0 mi West 26.5 mph 38.0 mph N/A   Overcast
7:55 AM 22.6 °F 6.1 °F 17.6 °F 81% 29.79 in 10.0 mi West 25.3 mph 38.0 mph 0.00 in   Overcast
8:09 AM 23.0 °F 5.1 °F 17.6 °F 80% 29.79 in 7.0 mi West 31.1 mph 35.7 mph N/A Snow Light Snow
8:41 AM 23.0 °F 6.0 °F 17.6 °F 80% 29.81 in 3.0 mi West 27.6 mph 35.7 mph N/A Snow Light Snow
8:54 AM 23.0 °F 6.9 °F 19.4 °F 86% 29.81 in 2.0 mi West 24.2 mph 31.1 mph N/A Snow Light Snow
8:55 AM 22.5 °F 6.2 °F 18.7 °F 85% 29.81 in 1.5 mi West 24.2 mph 31.1 mph 0.00 in Snow Light Snow
9:10 AM 21.2 °F 3.9 °F 17.6 °F 86% 29.82 in 3.0 mi West 26.5 mph 33.4 mph N/A Snow Light Snow
9:31 AM 21.2 °F 3.3 °F 15.8 °F 80% 29.83 in 4.0 mi West 28.8 mph 39.1 mph N/A Snow Light Snow
9:55 AM 20.8 °F 2.5 °F 14.7 °F 77% 29.83 in 7.0 mi West 29.9 mph 39.1 mph 0.01 in Snow Light Snow
10:30 AM 21.2 °F 2.7 °F 15.8 °F 80% 29.81 in 6.0 mi West 31.1 mph 34.5 mph N/A Snow Light Snow
10:55 AM 21.0 °F 2.7 °F 15.3 °F 78% 29.85 in 7.0 mi West 29.9 mph 40.3 mph 0.00 in Snow Light Snow
11:39 AM 21.2 °F 2.7 °F 15.8 °F 80% 29.86 in 5.0 mi West 31.1 mph 40.3 mph N/A Snow Light Snow
11:55 AM 21.7 °F 3.4 °F 16.5 °F 80% 29.87 in 4.0 mi West 31.1 mph 40.3 mph 0.00 in Snow Light Snow
12:07 PM 21.2 °F 2.7 °F 15.8 °F 80% 29.87 in 4.0 mi West 31.1 mph 40.3 mph N/A Snow Light Snow
12:19 PM 21.2 °F 2.2 °F 14.0 °F 74% 29.88 in 1.5 mi West 33.4 mph 39.1 mph N/A Snow Light Snow
12:30 PM 19.4 °F 0.5 °F 14.0 °F 80% 29.88 in 5.0 mi West 29.9 mph 42.6 mph N/A Snow Light Snow
12:39 PM 19.4 °F 0.2 °F 14.0 °F 80% 29.88 in 5.0 mi West 31.1 mph 39.1 mph N/A Snow Light Snow
12:55 PM 19.0 °F -0.5 °F 12.9 °F 77% 29.89 in 3.0 mi West 32.2 mph 36.8 mph 0.00 in Snow Light Snow
1:01 PM 19.4 °F 0.5 °F 14.0 °F 80% 29.89 in 7.0 mi West 29.9 mph 36.8 mph N/A Snow Light Snow
1:04 PM 19.4 °F 0.8 °F 14.0 °F 80% 29.90 in 7.0 mi West 28.8 mph 36.8 mph N/A Snow Light Snow
1:13 PM 19.4 °F 1.4 °F 12.2 °F 74% 29.91 in 7.0 mi West 26.5 mph 39.1 mph N/A Snow Light Snow
1:50 PM 19.4 °F 0.8 °F 14.0 °F 80% 29.91 in 4.0 mi West 28.8 mph 36.8 mph N/A Snow Light Snow
1:55 PM 19.0 °F 1.0 °F 12.2 °F 75% 29.91 in 5.0 mi West 26.5 mph 43.7 mph 0.00 in Snow Light Snow
2:47 PM 19.4 °F 2.1 °F 14.0 °F 80% 29.89 in 1.5 mi West 24.2 mph 32.2 mph N/A Snow Light Snow
2:55 PM 19.9 °F 2.2 °F 14.5 °F 80% 29.94 in 0.8 mi West 26.5 mph 33.4 mph 0.00 in Snow Light Snow
3:03 PM 19.4 °F 1.4 °F 15.8 °F 86% 29.90 in 1.5 mi West 26.5 mph 31.1 mph N/A Snow Light Snow
3:04 PM 19.4 °F 1.4 °F 15.8 °F 86% 29.94 in 1.5 mi West 26.5 mph 31.1 mph N/A Snow Light Snow
3:26 PM 17.6 °F -0.6 °F 12.2 °F 79% 29.91 in 7.0 mi West 25.3 mph 38.0 mph N/A Snow Light Snow
3:55 PM 18.5 °F -0.4 °F 12.9 °F 79% 29.97 in 2.5 mi West 28.8 mph 34.5 mph 0.01 in Snow Light Snow
4:36 PM 17.6 °F -0.6 °F 12.2 °F 79% 29.95 in 5.0 mi West 25.3 mph 33.4 mph N/A Snow Light Snow
4:55 PM 18.0 °F -0.2 °F 11.3 °F 75% 30.01 in 6.0 mi West 25.3 mph 36.8 mph 0.00 in Snow Light Snow
5:55 PM 17.8 °F -0.1 °F 12.2 °F 79% 30.04 in 6.0 mi West 24.2 mph 34.5 mph 0.00 in Snow Light Snow
7:25 PM 19.4 °F 4.1 °F 14.0 °F 80% 30.07 in 3.0 mi West 18.4 mph - N/A Snow Light Snow
7:55 PM 19.0 °F 2.7 °F 13.8 °F 80% 30.07 in 6.0 mi West 20.7 mph - 0.00 in Snow Light Snow
8:55 PM 19.4 °F 1.1 °F 12.2 °F 74% 30.08 in 10.0 mi WNW 27.6 mph 33.4 mph 0.00 in Snow Light Snow
9:16 PM 19.4 °F 1.4 °F 12.2 °F 74% 30.09 in 10.0 mi West 26.5 mph 36.8 mph N/A   Overcast
9:19 PM 19.4 °F 1.8 °F 12.2 °F 74% 30.09 in 10.0 mi West 25.3 mph 36.8 mph N/A Snow Light Snow
9:55 PM 19.4 °F 3.6 °F 12.6 °F 75% 30.11 in 10.0 mi WNW 19.6 mph 29.9 mph 0.00 in Snow Light Snow
10:55 PM 18.7 °F 3.1 °F 13.1 °F 79% 30.12 in 6.0 mi WNW 18.4 mph - 0.00 in Snow Light Snow
10:57 PM 19.4 °F 3.2 °F 12.2 °F 74% 30.12 in 8.0 mi WNW 20.7 mph 25.3 mph N/A Snow Light Snow
11:00 PM 19.4 °F 2.8 °F 14.0 °F 80% 30.12 in 9.0 mi WNW 21.9 mph 28.8 mph N/A Snow Light Snow
11:05 PM 17.6 °F 0.9 °F 14.0 °F 86% 30.12 in 4.0 mi NW 20.7 mph 28.8 mph N/A Snow Light Snow
11:06 PM 17.6 °F 0.9 °F 14.0 °F 86% 30.12 in 3.0 mi WNW 20.7 mph 28.8 mph N/A Snow Light Snow
11:08 PM 17.6 °F 1.7 °F 14.0 °F 86% 30.13 in 2.5 mi WNW 18.4 mph 26.5 mph N/A Snow Light Snow
11:10 PM 17.6 °F 2.7 °F 14.0 °F 86% 30.13 in 2.0 mi WNW 16.1 mph 26.5 mph N/A Snow Light Snow
11:13 PM 17.6 °F 2.7 °F 14.0 °F 86% 30.13 in 2.0 mi WNW 16.1 mph 26.5 mph N/A Snow Light Snow
11:16 PM 17.6 °F 2.7 °F 14.0 °F 86% 30.13 in 2.0 mi WNW 16.1 mph - N/A Snow Light Snow
11:17 PM 17.6 °F 3.2 °F 14.0 °F 86% 30.13 in 2.5 mi WNW 15.0 mph - N/A Snow Light Snow
11:20 PM 17.6 °F 2.2 °F 15.8 °F 93% 30.13 in 3.0 mi NW 17.3 mph - N/A Snow Light Snow
11:24 PM 17.6 °F 1.7 °F 14.0 °F 86% 30.13 in 3.0 mi WNW 18.4 mph - N/A Snow Light Snow
11:26 PM 17.6 °F 2.2 °F 14.0 °F 86% 30.13 in 4.0 mi WNW 17.3 mph - N/A Snow Light Snow
11:28 PM 17.6 °F 1.7 °F 14.0 °F 86% 30.13 in 4.0 mi WNW 18.4 mph 25.3 mph N/A Snow Light Snow
11:29 PM 17.6 °F 1.3 °F 14.0 °F 86% 30.13 in 5.0 mi WNW 19.6 mph 25.3 mph N/A Snow Light Snow
11:33 PM 17.6 °F 1.7 °F 14.0 °F 86% 30.13 in 8.0 mi WNW 18.4 mph 25.3 mph N/A Snow Light Snow
11:39 PM 17.6 °F 1.3 °F 12.2 °F 79% 30.13 in 10.0 mi WNW 19.6 mph - N/A   Overcast
11:45 PM 17.6 °F 2.2 °F 12.2 °F 79% 30.14 in 10.0 mi WNW 17.3 mph 26.5 mph N/A Snow Light Snow
11:55 PM 17.4 °F 2.4 °F 12.9 °F 83% 30.14 in 10.0 mi NW 16.1 mph 24.2 mph 0.00 in Snow Light Snow